Simultaneous Nadir Overpasses (SNOs) Predictions

Prediction of SNOs between GOES-17 and NOAA-20 Satellite Orbit:

Table of predicted SNOs for the next 14.0 days since TLE Epoch: 11/18/2023
Index Date Time (GOES-17) GOES-17 Lat,Lon NOAA-20 Lat,Lon Distance(km) Time Diff (sec)
1 11/20/2023 08:26:52 -0.01,-104.67 0.10,-105.07 46.04 80
2 11/21/2023 08:05:29 -0.01,-104.67 -0.95,-100.55 469.82 80
3 11/22/2023 20:27:26 0.01,-104.65 -0.25,-105.86 137.90 80
4 11/23/2023 20:11:21 0.01,-104.65 0.74,-101.33 378.45 80
5 11/25/2023 08:33:10 0.00,-104.68 0.44,-106.60 218.79 80
6 11/26/2023 08:11:46 0.00,-104.68 -0.61,-102.08 297.32 80
7 11/27/2023 20:36:22 -0.01,-104.65 -0.63,-107.37 310.67 80
8 11/28/2023 20:15:55 -0.01,-104.65 0.37,-102.84 205.51 23
9 11/30/2023 08:39:27 0.02,-104.68 0.76,-108.12 391.75 80
10 12/01/2023 08:18:03 0.01,-104.68 -0.24,-103.59 124.24 80
